Theta_e
289 286 287 285 286 288 287 288 286 282 286 284 282 281 282 284 285 284 285 286 286 288 288 290 289 288 290 291 292 293 288 289 290 291 292 292 293 293 292 292 293 293 295 295 295 296 297 300 303 304 306 306 306 305 305 303 302 301 300 299 298 299 299 298 298 298 298 298 296 297 295 293 293 292 293 292 292 292 292 294 294 294 294 294 294 294
287 287 286 288 286 285 286 285 285 284 284 285 283 286 284 283 286 286 289 287 286 289 285 284 285 287 289 291 292 292 289 290 291 291 292 293 293 293 293 293 293 294 293 292 294 294 295 297 302 304 305 305 304 304 304 303 301 300 299 298 298 298 299 300 300 299 299 300 300 296 294 293 292 292 292 291 291 290 291 291 292 292 292 293 293 292
287 285 288 287 285 284 284 285 285 288 285 283 287 283 286 284 284 285 286 286 287 288 287 285 286 289 290 291 293 293 293 294 293 293 295 295 294 293 293 293 293 292 293 292 294 294 295 296 301 304 305 305 306 304 303 303 301 299 299 298 298 298 299 299 298 298 295 295 296 296 295 294 291 291 291 290 290 290 289 289 290 290 291 291 290 290
285 282 288 286 285 286 284 283 285 284 283 282 283 285 284 282 286 284 284 286 288 287 286 284 287 290 291 292 293 295 295 293 293 293 293 294 294 295 295 294 293 292 293 292 293 293 295 297 300 303 304 304 305 304 303 301 300 299 299 299 299 298 297 297 296 294 294 293 292 291 290 290 290 289 290 289 289 289 289 288 288 289 289 288 288 289
285 288 286 285 286 288 285 284 285 285 285 283 285 282 282 284 283 285 284 284 285 287 284 286 288 290 288 290 291 291 287 290 294 293 292 293 293 294 293 293 294 293 293 293 292 294 294 296 299 303 304 304 304 304 303 301 300 299 299 299 298 297 296 296 294 292 292 291 290 289 289 290 289 289 289 289 288 288 288 287 287 286 287 287 287 288
286 286 285 287 284 283 284 285 284 286 284 281 282 288 287 283 287 284 284 286 285 282 284 284 284 281 281 282 286 289 287 290 290 292 294 295 294 293 292 293 292 293 294 294 293 294 294 296 299 303 304 303 304 304 304 302 301 300 299 299 297 295 295 294 293 292 291 290 289 290 290 289 289 288 288 288 287 287 287 286 286 286 287 287 287 287
286 287 286 286 286 285 285 283 283 287 283 284 284 285 288 286 286 285 286 287 280 281 286 284 283 282 283 287 288 288 286 290 292 291 293 293 293 291 292 293 292 292 292 293 293 294 294 296 299 302 303 303 303 304 304 302 301 300 299 297 296 294 294 293 292 292 291 290 292 293 295 295 294 292 288 288 287 286 285 286 286 286 286 286 286 286
286 286 284 285 285 285 284 285 286 287 285 282 283 282 285 285 286 285 285 286 283 282 284 284 281 281 284 286 288 285 287 291 292 295 297 294 292 292 292 292 291 292 292 292 292 293 294 296 299 301 303 303 303 303 303 302 301 298 296 296 295 294 293 293 292 292 292 291 293 293 291 291 292 292 287 286 285 285 286 285 285 285 285 285 286 286
287 285 285 285 284 283 286 284 284 288 284 282 284 283 284 285 283 283 284 283 283 283 283 285 285 285 282 284 285 285 290 290 292 295 295 291 290 290 291 291 290 290 291 292 292 292 294 296 299 302 302 303 303 301 301 301 300 297 295 294 294 293 293 292 292 292 292 292 293 291 290 288 288 287 286 286 286 285 285 284 284 285 284 285 285 285
285 286 287 288 287 285 284 284 285 290 287 285 283 284 283 283 282 281 281 285 282 280 281 283 285 279 284 284 287 284 288 289 292 295 294 292 292 291 289 289 288 289 290 291 292 293 294 296 299 302 303 302 301 300 300 299 298 296 295 293 293 293 293 293 292 292 292 292 291 290 289 287 285 285 285 285 284 284 285 284 284 284 284 284 284 284
287 289 288 287 287 285 284 284 284 286 286 286 285 288 285 282 281 280 280 280 279 275 282 284 285 283 281 284 286 287 288 290 291 292 290 288 289 288 287 288 288 288 289 290 291 292 294 296 300 302 301 301 299 298 297 297 296 295 294 293 292 292 293 293 293 292 291 290 290 290 288 287 286 285 285 284 283 284 284 284 284 284 284 284 284 284
287 288 288 287 287 285 287 287 285 285 285 287 286 283 286 284 279 278 272 276 275 276 277 280 282 284 280 281 283 287 287 286 289 291 290 289 290 289 287 287 287 288 289 290 291 291 292 294 297 300 300 300 298 296 296 295 295 293 293 293 292 292 292 292 292 292 290 289 289 289 288 286 286 285 285 284 283 284 284 284 283 283 283 283 283 283
285 286 285 289 289 289 285 288 286 284 287 286 286 287 280 274 272 273 271 275 273 277 279 279 281 283 283 287 286 288 290 291 289 291 293 291 290 289 287 287 287 288 289 289 290 291 292 294 297 299 300 299 298 297 296 294 294 293 293 292 291 291 291 291 291 290 289 289 288 288 287 287 286 286 286 285 284 284 284 284 283 283 283 283 283 283
282 282 285 288 289 289 290 287 284 284 287 285 287 282 277 271 271 269 265 262 268 275 278 281 281 281 283 286 292 294 295 295 292 291 291 292 292 291 289 287 287 287 288 289 290 290 291 293 297 299 299 299 298 297 295 293 293 292 292 292 291 290 291 291 290 289 288 288 288 288 287 287 286 286 286 285 285 284 284 284 283 283 283 283 283 282
276 278 283 288 286 289 291 291 290 286 287 288 284 287 283 276 270 266 264 273 276 275 276 277 276 276 278 285 287 291 293 290 289 289 289 289 289 288 286 285 286 287 287 289 289 290 291 293 296 298 299 298 297 296 294 293 293 293 292 291 291 289 290 289 289 289 288 288 287 287 287 286 286 286 285 285 286 284 284 284 284 284 283 283 283 283
283 281 281 286 285 289 291 288 287 286 286 285 284 284 280 282 277 277 270 268 269 271 272 273 280 281 285 285 287 287 287 288 287 287 287 289 288 286 286 286 287 287 288 288 289 290 290 292 295 297 298 298 297 296 294 293 293 292 292 291 291 290 289 289 288 288 288 287 287 286 286 285 285 286 285 285 285 284 285 284 284 283 283 283 282 282
278 278 283 284 286 287 287 286 289 287 283 283 286 283 284 283 282 273 271 270 272 270 277 272 279 283 285 289 292 294 289 289 287 287 286 289 289 286 288 288 287 287 288 288 289 289 290 291 293 296 297 298 297 295 294 294 293 292 292 291 290 290 289 289 288 287 287 286 285 285 285 285 285 285 284 284 284 284 284 284 284 283 283 282 282 282
281 277 284 284 287 287 285 286 285 285 285 285 280 284 285 284 282 280 275 269 272 273 275 272 278 282 280 283 283 286 288 291 290 290 290 288 286 287 290 289 288 287 288 288 289 289 290 291 292 294 296 297 297 295 294 294 293 293 292 291 290 289 288 288 288 287 286 285 285 284 284 284 284 284 284 284 284 283 283 283 283 282 282 282 282 282
285 280 281 282 282 285 285 288 289 287 287 284 282 286 286 280 279 279 274 272 267 268 271 275 277 279 283 286 285 286 286 290 291 292 290 291 289 288 290 288 286 287 287 287 287 288 289 290 291 293 295 296 296 295 294 293 293 292 291 291 290 289 289 288 288 287 286 286 285 284 284 284 284 284 284 284 284 283 283 282 282 282 282 282 282 281
287 282 280 284 284 285 286 287 283 285 288 285 287 287 285 283 274 277 280 273 276 270 267 275 274 283 286 285 285 290 288 289 291 290 291 292 292 292 291 289 287 286 287 287 288 288 289 290 291 292 293 294 295 294 293 292 292 291 290 290 289 289 288 288 287 286 285 285 285 285 284 284 284 284 284 284 283 283 283 283 282 282 281 282 282 281
285 284 275 281 284 285 284 285 285 286 285 283 284 282 285 279 282 281 278 276 277 267 267 269 277 284 286 287 286 290 290 290 291 291 292 292 293 292 291 290 288 288 287 287 288 288 289 289 290 291 292 293 293 293 293 292 291 291 290 289 289 288 287 286 286 286 285 285 285 284 283 283 283 283 283 283 283 283 283 282 282 282 282 281 281 280
282 279 279 278 281 282 283 282 285 287 290 288 288 286 288 283 280 276 278 277 270 276 277 269 278 286 286 285 290 290 290 290 290 292 291 291 291 291 289 287 287 288 288 288 288 288 288 289 289 290 290 290 290 291 291 291 291 290 289 289 288 288 287 286 285 285 285 285 284 284 283 283 283 283 283 283 282 282 282 282 282 281 281 281 281 280
288 280 279 275 281 284 283 284 281 283 284 285 286 284 287 283 281 276 274 277 272 278 276 275 271 283 287 287 288 287 285 287 288 287 291 290 289 288 287 286 287 288 288 287 287 287 288 288 289 289 289 290 290 290 290 290 290 290 289 288 288 287 286 286 286 286 285 284 284 283 283 283 282 282 282 282 282 282 282 282 281 281 281 280 280 280
292 283 281 281 280 281 283 283 282 282 286 287 284 281 285 286 287 286 284 281 281 274 275 273 271 284 286 284 282 284 283 284 284 284 288 290 289 287 285 284 285 286 286 286 286 287 287 287 288 288 288 288 289 289 289 290 290 290 289 288 287 286 286 286 286 285 285 284 283 283 283 282 282 282 282 282 282 282 281 281 281 281 281 280 279 279
287 286 285 280 277 279 280 283 284 284 284 281 281 284 288 289 286 281 279 276 276 278 283 280 277 284 288 282 283 284 284 285 286 286 284 287 288 287 286 285 285 285 285 285 285 286 286 286 286 287 288 288 289 288 288 288 289 289 288 287 286 286 286 286 285 285 284 284 283 283 282 282 281 281 281 282 282 281 281 281 280 280 280 280 279 279
290 287 286 281 278 276 276 276 278 277 284 284 280 284 285 287 285 284 282 281 280 285 282 281 283 289 286 286 290 285 285 287 287 287 285 285 287 288 286 285 284 285 285 285 285 285 285 286 287 287 288 288 288 288 288 288 288 288 288 287 286 286 285 285 285 285 284 283 283 282 282 281 281 281 281 282 281 281 281 280 280 280 280 280 279 279
285 287 289 287 285 283 285 285 284 285 282 283 284 286 286 288 289 289 287 283 282 284 281 285 287 288 289 287 287 288 285 287 289 288 290 289 288 287 286 285 284 285 285 285 285 285 285 285 286 287 287 288 288 288 288 287 287 288 287 286 286 286 285 285 285 284 284 283 282 282 281 281 281 281 281 281 281 281 281 280 280 280 280 280 279 279
286 287 288 288 287 289 289 285 284 289 286 286 286 284 287 286 287 286 285 284 287 281 281 287 287 286 289 290 285 284 285 285 285 287 288 289 290 289 288 285 286 284 285 285 285 285 285 285 286 286 287 287 287 287 287 287 287 288 287 286 286 285 285 285 285 284 284 283 283 282 282 281 281 281 281 281 281 281 281 280 280 280 280 280 279 279
287 286 289 288 287 288 288 283 284 285 285 285 286 286 285 286 286 284 286 289 286 284 284 288 286 286 290 292 291 291 290 290 292 293 293 291 288 286 285 285 285 285 285 284 285 285 285 285 285 286 286 287 287 287 287 287 287 287 287 287 286 286 285 285 285 284 284 283 283 283 282 282 281 281 281 281 281 281 281 280 280 280 280 280 279 279
289 287 288 287 286 287 287 285 283 285 283 283 283 285 286 286 286 287 288 289 288 287 289 290 288 287 291 293 291 293 292 293 294 292 290 290 291 288 285 285 285 285 285 285 285 286 286 286 286 286 286 286 286 287 287 287 287 287 286 286 286 285 286 285 285 284 284 284 283 283 283 282 281 281 281 281 281 281 281 280 280 280 280 280 279 279
290 287 291 286 286 287 288 283 282 283 282 283 283 284 285 286 287 287 288 288 289 289 290 289 288 288 294 290 291 292 293 293 291 291 293 293 292 290 288 287 286 286 286 286 286 286 286 286 286 285 285 286 286 287 287 287 287 287 286 286 285 285 286 285 285 284 284 284 284 284 283 282 281 281 281 281 281 281 281 280 280 280 280 280 279 278
289 285 285 287 285 286 288 288 280 280 282 281 283 284 285 284 283 284 285 288 287 286 287 286 286 288 292 291 291 291 291 292 293 294 294 295 294 293 291 289 289 289 288 287 287 286 286 285 285 285 285 286 286 287 287 287 286 286 286 286 285 286 286 285 285 284 284 285 284 283 283 282 282 281 281 281 281 281 280 280 280 280 280 279 278 278
287 287 286 286 284 285 289 286 285 283 283 283 285 288 289 286 286 287 289 289 289 290 286 285 287 293 293 287 290 289 291 293 293 295 296 297 296 295 293 293 292 291 291 290 288 287 286 286 286 286 286 286 286 287 287 287 286 286 286 286 286 285 285 285 285 285 285 284 284 283 283 283 282 281 281 281 281 281 280 280 280 279 279 278 279 278
287 287 286 287 284 285 287 285 286 284 279 281 293 295 294 290 287 285 286 287 289 290 290 293 293 295 293 288 291 291 290 292 295 298 299 300 298 294 291 291 292 292 292 291 289 288 288 288 287 287 287 287 287 287 287 287 287 286 286 286 285 284 284 284 285 285 285 284 284 284 283 282 282 282 281 281 281 280 280 280 279 279 279 278 278 277
287 287 286 287 284 284 285 285 282 278 281 291 290 290 294 296 293 290 290 291 290 290 291 292 293 294 294 293 293 294 294 295 295 296 296 290 291 292 293 292 291 291 291 290 289 289 289 288 287 286 286 286 286 286 286 286 286 285 285 285 284 284 284 284 284 284 285 284 284 284 283 282 282 282 281 281 280 280 280 279 279 279 279 278 278 277
287 286 286 284 286 283 282 284 277 279 287 289 290 286 287 289 289 289 288 291 292 291 291 291 293 294 295 295 295 293 293 294 291 291 289 287 288 294 294 294 294 292 291 291 291 291 289 288 287 287 287 286 285 285 285 285 285 284 284 284 284 283 283 283 284 284 284 284 284 283 283 283 282 282 281 280 279 279 279 279 279 279 278 278 277 277
290 287 286 284 287 281 282 283 283 288 287 289 289 284 289 287 286 288 286 289 292 293 292 292 293 294 294 294 295 296 293 290 291 293 286 290 293 294 295 296 295 293 292 292 291 292 291 289 288 287 286 285 285 285 285 285 284 284 283 282 283 282 282 283 283 283 283 283 283 283 283 283 282 281 281 280 279 279 279 279 279 279 278 277 277 276
293 287 288 285 283 286 283 281 281 281 279 285 289 286 293 292 292 292 290 288 294 293 294 293 292 293 293 294 294 294 290 289 289 292 289 293 296 296 292 291 291 291 291 291 290 289 287 286 286 286 286 285 284 285 285 284 284 283 282 282 282 282 282 282 283 283 283 283 283 283 283 283 282 282 281 280 279 279 280 280 279 279 277 277 276 276
292 293 289 286 285 283 283 281 281 279 283 289 286 286 287 288 291 288 286 285 289 289 293 292 292 293 293 293 293 288 288 287 289 293 297 293 294 292 293 293 292 291 291 290 289 288 285 285 286 285 284 284 283 283 284 283 283 282 282 282 282 282 282 282 283 283 283 283 284 283 283 283 282 282 281 280 280 280 280 279 279 278 276 277 277 276
287 288 287 284 283 285 283 282 280 285 285 286 283 282 283 285 291 290 279 282 286 289 291 292 292 292 293 292 290 288 289 287 290 295 293 291 292 291 291 292 291 289 288 285 285 286 285 284 284 283 283 283 283 283 283 283 283 282 282 281 282 281 282 282 283 284 284 284 284 283 283 283 282 282 281 281 280 280 280 279 277 276 275 275 276 275
284 284 286 282 284 285 285 283 285 285 288 286 285 282 285 289 291 284 280 288 290 289 288 291 291 292 293 290 288 288 290 295 297 293 282 283 286 286 285 285 286 286 287 284 284 284 284 284 285 284 284 284 283 282 283 283 282 282 282 281 281 281 283 283 284 284 283 283 283 282 282 282 282 282 282 281 280 280 278 278 278 276 275 274 274 274
284 285 284 285 283 283 284 283 284 286 289 285 285 287 289 290 281 283 292 286 287 287 286 288 290 291 291 289 289 292 294 294 295 284 284 283 284 282 282 282 282 282 282 283 283 283 284 284 283 283 282 282 282 282 282 283 282 282 281 281 281 282 283 283 283 283 282 282 282 282 282 282 282 282 281 280 279 278 277 277 277 276 275 274 274 273
284 283 280 283 285 285 284 282 282 278 288 288 288 287 289 288 290 290 287 284 283 284 286 286 288 290 289 290 290 291 292 290 286 286 285 284 283 284 282 282 283 283 282 281 282 282 284 283 282 282 282 281 281 282 282 282 281 281 281 280 282 282 282 282 282 282 282 282 282 281 281 281 280 280 280 279 278 278 277 275 275 274 274 273 273 272
289 283 283 285 287 280 282 279 281 288 287 290 292 288 289 292 296 292 290 291 282 281 285 286 287 289 288 291 291 289 289 288 287 285 282 281 282 282 281 281 281 281 281 281 282 282 282 283 282 281 280 281 281 282 282 282 281 281 280 281 281 280 280 281 281 282 281 281 281 280 280 279 279 279 279 278 278 277 276 274 274 274 273 273 273 272
289 287 289 284 288 286 284 287 290 287 290 292 295 295 295 296 295 287 289 289 288 286 282 284 288 287 286 287 287 286 286 285 288 287 285 285 282 282 281 281 281 281 281 281 281 280 281 282 281 280 279 279 280 281 282 283 282 280 280 280 280 281 280 281 280 281 280 280 279 279 279 278 278 278 278 277 278 277 276 274 273 273 271 272 272 272
290 292 290 290 287 291 291 288 287 283 284 289 291 292 292 293 288 284 287 288 285 286 285 286 285 285 284 284 285 283 285 288 286 283 281 281 281 280 280 280 280 280 279 280 279 280 280 279 279 279 278 277 278 280 281 282 282 281 281 279 280 280 280 280 280 279 279 279 279 278 277 277 276 276 276 276 277 277 277 275 273 274 271 271 272 272
283 284 286 287 285 287 283 289 287 288 287 288 291 291 286 282 283 285 286 288 287 284 284 285 285 285 284 283 286 288 288 286 285 283 281 280 280 280 280 280 280 280 280 281 281 279 279 279 279 279 278 278 278 280 280 281 281 282 280 279 280 280 279 279 279 278 278 277 277 276 276 276 275 274 274 274 275 275 275 274 273 273 271 271 271 271
284 284 286 286 284 287 287 289 289 287 283 283 286 288 290 291 289 284 285 285 285 284 284 285 284 284 284 284 286 286 288 285 283 283 281 281 280 280 280 280 279 279 279 280 279 279 280 280 280 279 279 278 278 279 279 279 278 278 278 278 278 278 278 278 278 277 276 275 274 274 275 275 270 272 273 273 274 273 272 271 272 273 272 271 271 271
283 285 279 283 287 288 288 287 287 285 285 285 284 284 288 290 290 285 283 282 281 282 283 282 283 285 284 286 286 285 285 284 283 283 282 280 280 280 280 280 280 280 278 278 278 280 281 281 280 279 279 278 277 277 278 276 276 276 276 276 276 277 277 276 274 274 272 271 272 271 271 273 272 273 272 271 270 270 271 272 272 273 272 270 272 273
285 283 283 283 283 285 286 288 287 285 287 289 288 287 287 287 286 287 285 282 282 282 283 283 283 281 282 284 284 284 285 285 281 281 281 281 280 279 279 278 278 277 277 277 278 278 279 280 280 279 278 276 276 276 275 274 273 273 274 274 275 277 275 273 272 272 270 270 271 269 270 270 270 269 270 270 269 268 264 267 272 271 272 269 271 274
286 286 286 282 283 284 288 289 289 289 290 292 295 290 288 287 285 285 286 286 286 285 284 284 284 282 281 281 281 283 284 284 281 280 279 279 278 278 278 277 277 276 276 276 277 278 279 279 279 277 276 275 275 275 274 273 271 271 272 274 275 275 274 273 273 271 269 269 269 269 269 268 267 266 267 267 268 268 268 265 266 273 274 273 272 274
Wind_Speed
1 3 4 5 9 9 5 5 3 5 6 6 5 5 2 3 7 4 4 3 1 1 8 10 9 9 11 12 13 10 3 7 10 12 12 11 11 11 12 12 12 12 13 5 8 9 9 9 9 7 5 7 7 7 9 7 7 6 7 7 7 6 6 6 6 5 5 8 6 5 3 5 4 4 6 5 5 5 4 4 5 6 6 6 7 6
3 1 6 10 3 7 6 8 10 7 4 4 5 2 2 3 6 4 1 2 3 3 4 1 3 11 13 12 14 9 3 13 14 14 14 15 13 12 13 13 12 10 1 6 7 8 8 7 9 7 7 8 10 8 8 10 8 7 7 7 8 6 6 5 4 5 4 2 3 7 5 6 5 4 4 6 5 5 4 5 5 5 6 6 6 5
1 6 8 2 5 7 6 5 4 5 4 3 3 3 0 6 5 9 1 2 1 2 10 6 9 13 11 12 14 13 15 12 12 14 16 12 13 13 12 12 9 7 9 7 8 8 9 9 10 11 9 9 9 9 9 8 8 8 7 7 7 7 6 6 5 4 4 4 5 4 5 5 5 5 4 5 6 4 5 5 5 5 6 6 6 5
0 6 10 6 6 9 4 3 6 5 4 5 4 2 6 3 1 5 1 2 1 1 3 3 10 14 9 13 18 17 11 9 9 10 12 12 15 17 13 10 10 12 10 12 12 12 11 12 11 11 10 10 9 9 9 8 9 7 7 8 8 6 4 5 6 6 6 7 9 8 7 6 5 7 5 6 7 6 4 6 5 5 5 5 5 5
8 2 1 6 4 6 5 2 6 5 3 1 4 3 2 1 4 5 4 3 1 1 2 6 9 11 4 7 6 6 4 6 16 6 12 13 13 12 4 5 10 13 13 11 11 11 11 14 14 14 12 10 11 10 10 9 9 6 9 9 8 6 6 5 7 8 9 9 10 8 10 8 10 7 5 6 6 4 3 5 5 5 5 5 5 5
8 4 4 5 3 4 7 3 5 8 2 2 5 9 7 3 3 3 2 5 7 4 3 3 7 5 4 6 9 10 6 8 4 5 14 14 11 8 12 13 7 8 9 14 15 15 14 15 12 12 12 12 11 11 10 9 9 9 9 9 8 6 6 6 7 9 8 7 11 11 10 8 6 8 5 6 8 6 4 4 3 6 5 5 5 5
5 1 3 6 6 3 3 3 4 5 6 1 4 6 6 3 1 1 1 2 2 2 1 2 1 12 4 5 5 6 3 10 9 7 14 11 8 5 9 8 9 10 8 7 7 9 12 12 12 13 14 13 13 11 11 9 9 10 9 8 9 7 7 6 8 8 6 7 7 7 8 12 13 13 2 2 3 5 4 4 5 5 5 4 5 5
2 0 4 5 5 4 4 2 5 10 7 3 1 3 4 4 4 3 2 3 4 2 4 1 2 1 18 3 4 4 4 10 11 16 18 5 6 9 9 9 8 9 9 9 10 11 11 12 15 17 17 13 13 11 11 9 10 10 8 9 9 7 8 8 9 8 6 7 7 7 6 7 8 10 9 7 6 4 5 6 5 5 4 4 3 5
6 4 5 5 2 4 7 5 4 8 7 3 2 5 5 6 4 5 3 2 0 4 8 1 1 1 8 7 3 3 2 6 12 16 14 3 5 7 7 6 6 6 7 9 10 12 14 15 15 13 13 12 12 11 12 12 10 8 8 8 7 8 9 9 11 9 8 6 6 5 6 8 4 6 7 6 5 6 5 7 5 5 5 4 4 4
1 3 7 6 6 7 3 1 4 10 4 1 5 7 7 7 6 4 4 3 2 3 10 6 5 3 14 1 3 4 1 7 12 15 10 7 8 6 6 5 5 4 5 7 9 11 12 13 12 11 10 12 11 10 9 9 9 8 8 9 10 9 8 8 10 9 8 7 6 7 6 8 8 6 6 5 7 6 5 7 6 5 5 4 4 4
0 4 3 4 6 3 5 3 1 1 2 9 4 8 6 8 4 3 6 2 3 3 7 9 10 5 9 3 7 6 8 9 7 8 7 8 5 6 6 5 4 5 6 7 8 9 10 9 10 11 13 12 9 8 10 10 9 9 8 10 10 10 8 9 9 9 9 8 7 6 8 10 14 9 10 9 6 6 6 7 6 5 4 3 4 4
1 2 1 1 4 3 4 5 4 3 5 6 3 4 5 2 6 3 4 5 2 8 3 3 5 0 9 5 6 8 5 5 7 8 7 8 3 1 2 3 5 6 7 7 8 9 9 9 8 10 13 13 12 10 10 8 10 9 9 9 10 10 10 9 9 8 8 8 8 7 8 11 11 14 10 11 12 8 9 8 8 5 5 4 4 4
3 5 1 2 3 8 3 9 4 4 2 4 6 7 6 4 5 3 2 1 5 8 1 3 1 4 16 13 6 10 12 10 10 10 10 8 7 6 5 5 5 6 6 8 8 8 9 11 12 14 14 14 14 14 14 12 10 8 8 10 10 10 9 10 9 9 8 9 8 9 8 8 8 10 11 10 11 10 9 8 8 8 7 5 6 4
7 1 1 2 2 5 7 9 3 1 4 5 8 7 5 1 1 6 4 2 6 6 3 0 1 7 4 9 15 22 21 14 9 11 10 8 9 7 4 4 5 6 7 8 8 8 9 10 11 12 13 14 14 14 13 11 11 10 9 9 10 9 10 9 8 8 8 8 7 8 6 8 8 9 9 9 10 9 7 7 7 7 7 7 6 6
4 5 8 9 5 5 8 8 12 8 11 9 2 9 9 9 7 4 5 5 7 4 2 5 1 8 3 5 1 11 10 6 7 7 7 7 7 4 2 4 5 6 7 7 8 9 11 11 11 12 13 12 12 13 12 10 10 9 9 10 11 9 9 9 9 8 8 6 7 6 6 6 5 7 8 7 6 9 10 7 7 6 6 6 6 6
10 6 3 3 2 5 12 0 5 6 4 2 2 5 4 9 6 4 4 2 1 3 5 2 7 5 7 4 6 5 7 9 6 8 5 11 8 5 6 7 7 8 8 8 9 9 9 10 11 11 12 12 11 15 11 11 10 10 10 11 11 12 11 10 9 8 8 8 6 8 9 7 6 5 5 6 5 5 6 8 8 8 7 6 6 5
4 5 2 6 4 2 2 1 0 3 8 4 6 6 5 1 7 7 2 1 1 3 10 3 9 7 9 11 15 17 8 11 5 6 5 11 7 4 10 8 8 8 8 9 10 9 10 10 11 11 11 11 11 12 14 14 12 13 12 11 11 11 9 9 10 10 7 8 9 9 7 7 8 8 10 8 10 9 8 8 8 7 7 7 5 6
7 4 2 2 4 1 0 0 2 5 3 9 4 7 1 2 4 5 5 2 4 4 8 2 8 10 3 16 3 1 5 12 9 10 9 7 3 6 11 9 9 9 10 8 8 8 10 11 12 11 10 11 12 13 13 13 11 11 10 12 11 10 11 10 8 8 7 8 9 9 9 8 7 8 9 8 10 9 9 8 8 7 7 7 6 6
3 2 1 2 1 4 2 0 2 2 2 4 3 4 6 4 2 2 4 4 1 4 7 6 3 10 10 13 2 1 5 9 13 13 9 10 7 10 10 8 7 6 5 8 9 10 10 11 11 12 12 10 11 12 11 11 9 8 9 10 11 13 13 14 11 9 7 6 7 8 9 11 10 8 8 8 7 7 9 10 9 8 7 7 7 7
1 5 3 1 2 2 1 3 9 3 1 1 2 3 1 2 1 5 7 3 5 4 1 9 2 14 6 7 8 10 12 10 10 9 11 13 10 10 9 7 7 8 9 9 9 9 9 10 10 11 12 12 13 13 12 12 10 10 9 11 10 9 9 9 9 9 11 9 7 7 7 6 6 9 10 9 9 8 9 10 10 10 9 8 7 7
3 1 5 1 3 2 4 6 10 13 10 1 2 3 0 0 2 5 1 3 3 4 4 2 9 15 8 9 10 10 11 12 11 11 10 11 12 11 8 5 6 8 8 8 8 9 9 10 10 10 10 8 6 8 9 11 12 11 10 11 11 12 10 9 9 9 10 9 8 10 11 10 10 10 8 10 9 9 10 8 8 8 7 7 7 8
2 2 9 2 0 6 7 2 3 7 9 10 14 14 16 12 6 4 7 1 2 3 6 5 15 17 7 4 9 9 10 9 10 11 9 9 9 9 7 5 7 7 8 9 8 8 9 10 10 9 8 6 7 8 11 10 10 11 11 11 11 10 11 12 10 10 9 8 9 10 10 10 9 10 10 11 10 10 9 8 8 9 9 8 7 8
6 3 7 5 9 9 3 0 1 1 1 1 2 3 7 2 4 3 2 6 1 4 3 3 4 23 3 10 8 6 5 5 5 7 9 7 7 7 5 5 6 7 6 7 8 8 8 9 10 11 12 12 12 11 11 10 12 12 12 11 11 12 12 12 12 11 11 11 10 10 10 10 11 10 11 12 10 10 9 8 8 7 9 8 8 6
5 2 3 4 1 2 1 1 1 0 1 1 1 1 5 9 13 12 6 5 7 2 3 2 1 19 1 1 0 2 2 5 2 5 11 6 6 4 6 5 6 6 5 5 6 7 8 8 8 9 11 11 11 11 11 11 10 11 11 11 11 12 12 11 10 10 10 10 11 10 11 10 9 11 11 10 8 11 9 8 8 8 8 7 7 7
6 5 6 2 2 1 2 1 1 3 1 2 3 7 10 8 4 2 6 1 2 10 14 10 12 21 0 1 1 1 3 4 5 4 4 9 6 4 6 6 5 5 5 6 8 8 8 9 12 13 12 13 12 10 11 11 11 11 11 11 12 11 12 11 10 11 11 11 11 9 10 10 10 10 11 10 9 10 10 9 8 7 8 8 8 7
6 6 9 8 12 11 9 10 10 5 10 5 3 4 5 10 12 6 5 6 8 14 11 7 13 19 2 2 0 1 3 4 6 6 5 7 8 7 5 6 5 5 6 6 7 8 12 12 10 11 12 11 11 11 11 11 11 11 11 12 11 12 11 11 10 11 11 10 10 9 11 10 9 10 11 10 9 10 9 9 8 8 7 8 9 8
3 2 11 13 15 15 15 6 0 9 4 7 11 16 16 15 14 13 6 5 17 7 8 17 23 21 15 3 2 4 1 5 7 5 6 8 9 10 7 5 5 7 8 9 10 10 7 9 14 13 11 12 12 12 11 12 13 12 12 12 12 11 12 12 12 11 12 11 12 10 11 10 10 9 9 9 8 8 8 8 8 8 8 8 8 9
1 3 10 13 14 17 14 5 7 15 14 16 13 12 14 13 13 14 15 21 9 8 15 19 11 11 24 14 4 5 5 6 6 8 10 8 11 7 6 5 5 6 7 7 8 11 15 15 11 12 13 12 13 12 12 12 13 14 14 14 12 12 12 10 12 13 13 11 11 12 11 10 10 10 9 8 8 8 8 8 8 8 7 8 9 8
6 8 8 9 14 15 12 3 9 3 3 5 11 13 15 17 14 19 24 25 6 11 20 21 6 12 20 20 9 10 8 7 9 12 13 7 3 3 4 6 8 10 9 10 13 13 13 14 13 13 14 14 12 15 15 13 13 11 11 12 13 13 14 13 13 13 13 13 12 11 11 10 10 9 9 10 9 9 9 9 8 7 7 8 8 8
4 6 7 6 10 11 14 7 7 9 3 2 5 9 14 18 24 26 24 19 15 14 18 21 13 15 21 15 4 11 9 11 10 7 2 3 9 8 7 8 9 10 11 14 15 15 15 13 10 13 13 13 16 16 15 15 15 15 14 13 12 13 12 13 14 14 13 13 13 12 11 10 10 10 9 10 10 10 10 9 10 10 10 10 9 9
5 7 7 3 3 10 13 3 7 6 3 5 6 9 15 19 22 22 18 15 16 20 23 17 13 21 21 4 7 6 11 8 6 7 11 12 10 11 12 11 11 12 13 14 13 14 12 10 11 11 14 16 17 19 18 16 14 13 13 13 13 13 12 12 13 13 13 13 12 12 12 12 12 10 11 12 11 11 11 11 10 10 10 10 9 10
4 4 3 3 7 12 15 9 4 5 5 6 9 14 20 18 10 7 12 15 12 17 14 9 17 25 11 6 2 8 6 11 14 15 14 14 14 13 12 12 12 13 13 14 15 11 9 12 13 15 18 19 19 18 15 14 15 15 16 14 14 13 12 13 12 13 14 12 12 12 12 12 12 12 12 11 12 11 10 10 10 10 10 9 9 9
5 3 3 3 8 12 17 1 8 6 1 8 15 29 27 7 10 9 16 16 17 16 12 16 23 24 12 3 4 6 10 13 14 13 16 17 15 13 15 16 15 14 14 14 13 12 13 15 17 19 18 16 15 16 18 16 14 17 16 15 13 11 13 14 13 13 12 11 12 12 12 12 12 13 11 12 11 11 10 11 11 10 11 13 11 9
4 5 5 4 8 9 10 5 5 4 12 15 21 10 10 14 16 18 20 18 15 13 16 20 22 23 8 4 11 11 9 13 16 18 17 17 14 10 10 11 13 14 14 13 10 11 14 13 11 13 14 15 15 15 13 14 16 14 11 12 11 14 14 15 13 13 13 12 12 12 11 12 11 12 12 11 10 10 11 12 13 11 8 7 7 10
10 9 7 4 4 8 4 8 5 13 16 15 3 1 4 11 17 22 22 16 16 17 20 23 25 23 15 10 11 11 12 15 15 17 12 3 2 6 11 13 14 15 15 12 11 12 13 13 12 9 9 13 14 12 12 12 11 10 11 12 14 13 13 13 14 13 13 13 12 11 10 11 11 11 10 10 10 10 10 10 8 9 10 10 11 12
10 10 5 3 4 2 3 8 7 11 5 6 7 2 1 2 4 7 12 18 19 21 24 25 28 25 19 16 15 11 13 14 8 11 6 4 6 11 12 14 14 13 13 13 15 15 12 12 15 17 16 9 9 11 12 13 11 12 13 11 12 11 12 12 13 13 12 12 12 12 12 12 11 10 10 11 10 11 11 12 12 12 9 8 7 6
12 5 5 5 6 8 5 10 14 6 14 14 13 4 6 7 6 11 10 15 17 19 18 20 25 21 15 16 20 18 12 6 12 14 8 9 15 17 18 15 11 12 13 12 11 13 12 11 10 10 9 11 13 14 14 13 13 13 12 13 12 12 12 13 13 14 13 13 13 13 14 13 13 12 12 12 12 12 12 11 10 9 7 9 9 9
13 13 8 10 6 10 8 7 3 4 12 19 6 4 10 9 12 11 9 13 15 14 17 19 20 18 17 20 20 15 1 5 15 17 8 17 21 18 8 9 9 8 9 10 8 8 6 7 6 8 12 13 14 14 12 13 14 14 14 14 13 13 13 14 15 13 13 13 13 13 12 12 13 13 12 11 13 14 13 11 9 10 9 11 11 11
10 13 11 12 6 6 9 8 8 9 12 10 1 6 3 2 9 5 3 12 7 8 15 17 18 19 20 18 20 4 4 8 16 17 14 13 13 7 11 12 12 12 11 10 10 10 8 8 10 10 9 11 12 12 13 15 16 14 14 14 14 13 14 15 14 13 15 15 13 12 12 12 12 12 13 14 13 12 12 12 12 10 8 9 8 8
12 9 8 11 10 9 9 9 9 5 10 4 3 2 2 5 9 8 2 11 4 9 12 14 17 19 18 18 9 8 10 11 15 18 8 7 8 7 10 12 10 10 9 6 6 7 8 8 9 9 12 15 15 13 14 14 14 13 14 13 12 14 15 15 15 14 10 9 10 10 10 10 12 11 12 13 11 10 11 8 7 8 9 8 7 7
6 4 8 14 12 14 15 8 4 6 5 4 5 2 4 6 7 8 12 10 4 9 7 11 15 16 16 10 7 9 13 16 18 7 5 2 1 2 4 4 5 4 7 6 6 6 8 9 12 14 15 11 11 12 13 14 14 13 13 13 13 16 16 11 9 10 10 10 9 10 11 10 12 13 11 11 11 10 8 8 9 8 8 9 6 6
5 5 1 6 11 12 11 12 9 7 5 4 0 10 8 7 4 15 8 2 5 6 5 7 12 13 9 7 9 12 14 15 13 3 2 1 4 4 3 2 1 0 1 1 5 8 7 8 7 8 8 9 13 14 14 13 14 13 12 13 16 15 9 9 10 9 9 10 10 10 10 10 9 10 10 8 8 9 8 6 7 8 8 7 7 8
9 8 6 8 5 3 4 9 6 9 5 10 12 2 3 8 9 4 2 3 3 4 6 6 9 9 6 9 11 13 12 7 4 5 6 6 5 6 4 4 5 5 5 5 5 5 9 9 9 10 10 9 11 12 12 14 13 12 12 14 12 9 9 9 10 10 10 10 10 10 11 10 11 10 8 9 9 10 9 7 8 7 7 8 8 9
8 6 4 8 7 6 8 9 8 7 4 14 17 11 9 14 11 6 4 6 3 4 6 6 8 9 9 11 11 11 9 7 7 8 7 5 6 3 3 3 2 2 2 1 3 6 6 8 7 8 7 9 9 10 11 14 13 12 12 11 7 8 8 9 9 10 10 10 10 10 9 9 9 9 8 9 9 8 9 8 8 7 7 8 8 7
9 11 9 9 7 9 8 10 8 5 14 15 13 12 15 20 14 4 6 4 5 7 4 4 8 7 6 6 5 4 4 7 11 8 7 8 5 5 5 4 3 3 4 4 5 4 4 9 11 10 8 7 9 8 10 10 13 12 12 8 9 9 10 10 10 10 10 9 9 9 8 8 8 8 8 8 9 9 8 8 8 8 5 7 6 6
5 13 6 7 6 6 7 4 3 3 3 9 10 8 7 8 3 3 3 1 4 4 6 6 3 2 2 4 4 5 7 9 7 6 6 5 4 4 3 3 3 4 4 4 4 5 5 6 7 10 11 7 6 8 7 7 10 14 11 9 9 10 10 11 11 11 10 9 9 9 9 9 7 7 7 8 7 8 8 10 9 8 7 6 7 7
4 1 3 7 1 7 9 6 10 10 8 9 13 10 1 1 3 1 4 6 5 4 5 5 6 4 4 5 8 10 10 8 7 6 5 4 6 6 6 6 5 6 8 9 7 7 8 9 10 10 10 10 6 7 6 7 5 6 8 9 9 9 10 11 11 10 9 9 8 7 9 9 8 7 6 6 5 5 6 6 7 7 7 7 7 7
5 3 5 5 4 12 8 8 8 6 2 2 5 6 9 11 8 6 6 4 4 4 4 6 3 5 3 4 9 9 12 6 6 8 6 7 7 7 7 7 7 6 4 5 6 6 7 9 11 12 11 10 7 7 6 6 6 7 8 7 8 9 10 10 10 10 9 9 8 7 7 7 9 9 6 6 7 7 6 5 7 8 9 10 10 9
2 3 4 4 10 7 6 5 7 5 3 5 7 7 9 9 5 4 5 5 5 5 7 5 5 7 6 10 5 6 7 9 8 7 7 7 7 7 7 6 5 6 6 8 6 7 9 10 11 11 11 9 7 7 7 7 7 7 8 8 8 10 11 10 8 8 8 7 7 7 6 6 7 6 7 6 5 4 4 8 8 8 6 4 6 8
3 3 1 2 6 8 9 7 1 4 7 6 4 7 12 10 6 8 5 4 6 7 7 7 8 5 6 6 5 7 9 9 6 6 8 7 6 5 6 6 5 6 5 4 4 4 4 5 10 12 11 9 7 7 8 8 7 6 6 7 8 9 12 11 9 9 7 7 6 6 6 6 6 6 6 7 6 6 1 3 2 3 5 5 5 9
10 8 7 6 5 7 6 10 8 9 10 15 16 8 7 7 5 8 10 11 11 9 8 7 9 7 8 8 5 7 9 8 7 5 5 4 4 3 4 6 8 7 6 5 6 5 7 7 8 11 11 9 8 8 8 8 7 7 6 7 7 9 11 11 9 7 7 7 6 7 7 7 6 5 5 5 6 6 6 3 1 2 5 5 6 8
Wind_Direction
137 107 182 196 217 199 201 178 151 168 123 100 88 102 174 197 279 281 273 269 277 327 238 238 246 255 270 266 267 268 169 244 259 259 253 246 241 238 238 233 229 226 234 162 185 186 187 187 181 176 163 165 155 158 150 145 150 146 143 137 134 139 135 138 137 136 139 130 99 60 73 98 87 93 99 71 63 57 51 48 69 87 95 94 87 91
62 91 246 226 194 184 184 128 111 78 47 126 115 125 231 179 255 230 116 357 308 172 294 287 287 262 257 267 266 269 183 246 237 243 248 248 238 240 235 236 227 229 99 160 186 195 193 192 183 172 175 170 168 167 161 163 161 149 147 140 142 148 147 141 134 130 125 98 113 134 127 110 106 103 87 104 77 72 58 53 51 71 81 85 86 91
69 179 242 171 148 98 82 112 106 128 111 54 146 150 10 265 249 288 290 333 296 112 263 309 288 266 258 257 266 257 245 242 230 225 240 241 247 241 235 233 226 199 210 180 202 186 190 192 187 184 186 181 177 167 170 162 152 151 149 146 149 157 154 144 126 110 107 95 84 101 123 116 101 57 55 73 86 72 79 65 54 64 76 83 81 80
250 283 245 167 137 101 53 83 101 75 69 119 97 110 214 248 35 304 300 9 15 171 284 306 298 278 251 245 248 251 251 264 255 238 246 235 244 246 237 217 211 214 199 199 190 190 186 190 189 184 185 182 176 170 168 164 162 156 154 154 156 146 130 124 118 106 89 97 96 83 89 80 78 111 95 88 84 83 76 75 58 49 67 64 80 83
196 203 22 132 148 128 127 110 112 126 204 296 169 155 212 201 238 181 258 302 259 26 54 311 276 281 249 264 281 286 293 277 266 265 256 246 239 252 290 231 206 210 201 200 185 189 185 189 192 188 184 179 185 181 177 170 166 160 163 160 151 139 135 122 124 126 128 119 104 102 97 94 91 84 104 97 80 71 81 87 59 57 55 72 83 90
279 251 132 90 72 71 110 135 199 141 214 312 235 195 205 177 206 270 339 12 1 337 353 45 331 301 287 240 247 274 319 280 270 246 254 252 247 240 241 241 219 226 201 194 193 189 187 187 182 185 182 185 187 186 181 169 166 162 163 156 143 129 127 130 132 137 149 152 140 141 132 123 125 133 153 152 148 147 124 99 111 70 61 77 85 88
201 53 139 156 139 122 113 166 232 157 167 72 269 198 217 153 140 124 305 52 314 239 303 44 94 288 238 245 247 264 302 282 295 258 261 255 256 238 242 237 219 212 206 209 192 179 176 185 182 185 188 188 189 188 175 170 167 163 159 150 146 144 137 135 139 146 144 132 141 152 154 152 156 148 94 73 67 107 112 105 91 89 74 61 91 90
114 55 74 80 98 124 125 196 236 159 117 235 247 138 135 143 171 208 151 177 231 263 282 85 121 249 301 270 248 312 320 282 297 283 269 272 255 243 238 230 220 211 202 187 187 181 185 182 186 186 189 187 188 176 169 170 168 157 150 151 149 143 146 152 153 156 164 151 157 159 152 143 143 149 143 146 122 101 111 104 95 93 81 71 64 96
157 183 167 159 140 119 186 210 185 159 136 219 194 137 146 155 174 129 106 125 176 18 297 24 128 204 255 271 300 355 272 283 262 259 268 322 272 254 252 244 233 211 195 182 179 182 185 188 192 185 183 183 175 170 176 176 169 147 149 144 137 146 151 157 163 161 166 172 168 155 147 106 67 95 113 119 114 116 117 103 94 90 89 83 70 68
320 165 211 156 140 206 211 298 180 167 136 232 129 93 87 81 70 100 104 91 318 50 273 166 199 173 274 272 216 344 155 261 252 255 274 293 270 268 266 264 237 203 182 189 190 186 190 191 189 184 173 177 178 170 164 163 158 153 151 151 153 154 156 157 165 171 171 170 159 149 150 124 124 121 111 117 122 122 127 109 108 106 109 111 101 85
228 307 190 129 195 183 129 52 102 14 106 128 121 81 37 42 34 32 60 75 50 281 255 183 203 147 276 249 200 151 209 208 245 293 293 297 289 269 253 240 204 185 180 186 188 192 192 189 182 173 178 176 168 162 162 164 164 161 158 158 161 162 157 163 168 173 175 166 164 154 153 143 142 143 134 132 124 126 130 129 130 132 128 123 112 105
16 11 139 261 81 113 103 77 18 78 117 122 101 128 76 355 12 35 345 30 135 265 253 299 221 61 210 288 273 246 275 230 207 237 275 286 288 277 292 270 207 189 189 187 182 186 179 177 185 176 178 178 175 171 169 165 168 164 164 162 157 163 168 169 170 174 175 170 168 162 159 155 153 148 154 151 147 158 147 150 143 142 130 122 111 106
276 219 235 343 214 129 115 87 13 23 341 80 90 83 121 244 33 294 22 261 197 220 158 319 225 327 243 244 278 284 265 252 218 224 235 241 255 262 280 254 213 198 187 190 190 180 183 184 181 183 179 178 182 186 180 174 170 164 162 166 161 169 169 174 172 175 171 170 173 164 164 160 156 150 151 154 144 158 155 156 149 154 147 140 134 137
268 282 233 212 80 230 148 137 155 94 224 127 155 147 105 146 169 258 272 270 307 293 265 296 88 246 289 285 226 243 247 237 232 226 237 234 241 248 256 233 211 206 200 198 189 190 190 187 186 183 180 184 186 186 181 175 172 172 170 168 169 167 173 171 171 173 167 173 161 153 158 161 166 160 155 160 150 155 147 150 151 152 148 148 143 142
227 299 246 144 238 171 191 195 178 157 164 207 95 162 179 149 160 202 190 217 229 218 266 275 86 231 121 241 259 232 260 290 267 249 234 247 251 248 250 236 222 214 215 199 199 196 193 192 188 186 184 185 184 181 178 176 176 170 172 172 172 165 177 173 176 172 170 160 150 150 154 162 170 161 152 154 153 145 144 147 145 140 144 145 144 142
217 231 273 263 299 164 181 222 112 93 72 210 158 76 107 225 133 233 214 158 284 340 342 213 214 194 197 268 289 245 278 282 266 276 278 263 242 224 250 225 214 217 209 204 204 200 197 193 192 192 190 185 182 185 181 178 176 176 178 177 175 173 172 175 174 177 171 151 143 142 156 164 157 137 120 119 118 114 131 138 147 144 142 138 132 127
41 270 314 309 45 128 181 357 100 144 196 209 114 207 210 153 106 86 64 46 81 49 256 136 290 277 301 276 241 247 233 258 290 286 266 256 255 198 244 233 219 216 212 206 205 198 193 194 201 198 190 184 180 183 187 186 183 181 176 175 175 174 170 173 178 174 161 141 144 148 143 149 152 148 156 152 147 143 137 138 137 140 135 129 134 132
146 238 337 75 212 321 42 237 103 28 146 99 197 231 174 130 112 137 222 359 72 205 266 75 252 293 51 284 13 41 230 250 254 261 253 265 267 235 246 232 216 213 215 209 205 202 198 197 196 195 194 189 186 183 186 188 183 182 177 177 170 167 171 178 173 167 159 152 150 147 151 158 167 159 155 151 149 147 142 138 131 131 141 152 144 138
121 291 299 318 272 284 351 85 46 1 38 144 194 200 120 227 226 292 90 267 184 263 273 296 262 265 194 253 88 260 203 240 241 242 251 258 243 241 248 241 218 219 211 203 202 199 198 197 196 196 195 190 186 183 184 181 172 171 177 180 177 175 178 176 173 166 162 154 160 169 166 164 159 157 148 148 146 147 152 151 151 153 145 134 144 138
112 186 288 305 140 314 356 120 202 183 357 45 60 107 89 100 162 131 197 173 122 258 50 288 43 268 177 220 173 226 205 217 225 236 232 235 240 238 243 227 209 210 215 209 205 202 195 194 196 196 194 190 185 181 179 174 172 175 177 177 181 179 173 167 165 161 154 158 155 154 146 155 162 153 153 154 155 159 162 158 154 148 150 152 143 139
193 131 250 294 305 104 188 195 208 164 164 87 127 221 137 8 249 111 24 135 175 178 186 253 303 263 245 195 171 206 205 211 206 210 224 230 226 229 235 237 213 214 214 211 204 196 192 191 191 196 200 198 187 181 175 176 177 177 175 181 181 175 165 163 166 163 172 164 161 156 164 165 161 159 153 148 161 160 157 157 150 149 140 136 150 148
134 165 202 162 263 224 241 261 230 197 196 184 183 193 184 144 151 148 250 44 115 128 235 143 253 276 257 208 184 197 220 187 222 205 205 248 252 220 212 213 205 215 219 209 200 191 188 184 187 189 191 190 183 183 182 180 173 176 183 184 178 177 176 170 171 176 167 172 169 166 163 168 163 158 155 155 158 162 159 158 156 146 145 154 149 155
158 147 96 195 213 198 223 306 260 231 71 135 157 240 136 172 93 101 164 236 47 255 79 177 76 268 240 183 202 187 227 231 163 280 216 220 255 286 262 209 213 214 211 202 189 190 191 186 183 187 190 191 193 188 182 180 182 181 181 180 182 179 181 178 177 176 171 171 171 170 166 163 166 161 162 159 163 164 161 155 151 151 152 154 150 150
108 114 179 276 320 312 338 312 17 62 110 41 346 75 140 180 192 196 207 171 168 159 190 245 184 260 80 322 355 319 233 286 278 183 265 221 215 229 258 247 221 216 222 196 182 186 184 179 178 182 189 193 194 189 188 188 184 182 182 182 179 185 177 176 174 172 171 173 176 170 161 170 164 163 162 166 171 167 159 155 154 152 149 145 147 147
153 233 167 157 327 341 338 351 11 356 54 199 180 210 202 195 156 88 97 79 190 208 200 148 231 262 305 6 312 33 354 308 287 267 221 277 267 233 234 240 228 215 200 195 186 186 179 178 189 193 190 195 194 188 187 188 188 184 185 182 182 182 177 174 172 170 173 174 170 167 170 172 166 167 170 173 170 166 158 157 153 153 152 150 153 153
163 166 158 191 213 224 227 212 210 194 197 208 239 186 185 168 179 144 213 207 215 234 173 204 243 249 24 327 319 354 348 312 267 253 251 214 261 266 250 243 224 198 211 202 189 185 196 198 197 196 195 191 191 191 190 189 187 189 188 187 181 179 174 176 170 173 170 171 170 173 179 175 170 176 176 175 170 166 162 157 157 156 157 160 154 153
177 196 189 192 204 226 234 240 188 120 87 178 218 183 197 203 193 196 198 183 220 212 148 220 225 254 264 242 266 265 290 241 274 302 266 254 232 235 247 244 218 204 205 204 201 203 195 200 207 204 191 191 190 189 192 190 188 189 188 187 185 181 174 172 171 172 175 176 178 177 183 176 178 176 176 175 168 157 159 160 161 162 161 167 159 158
93 198 222 222 224 231 237 221 197 162 181 208 196 198 199 188 193 191 199 224 192 77 248 241 226 248 259 249 214 267 269 266 266 263 263 257 261 253 219 206 213 217 218 212 210 204 205 207 201 196 195 192 194 190 192 195 195 189 186 186 183 179 174 172 173 176 179 177 181 184 181 179 176 175 174 167 159 164 160 159 163 168 162 162 165 167
159 210 225 210 237 244 251 177 175 203 204 197 202 191 188 196 192 201 219 226 150 193 235 252 166 222 255 255 214 218 203 209 224 234 230 245 282 246 202 203 209 214 214 213 218 214 210 206 199 193 194 197 188 193 195 193 195 194 190 186 182 177 179 171 173 179 181 182 184 182 180 176 174 173 164 161 163 166 169 170 166 160 162 170 169 171
158 229 227 196 229 251 255 227 162 185 207 122 204 211 202 194 203 208 218 221 212 229 244 256 254 245 250 258 181 219 203 216 230 234 290 220 234 224 217 221 218 217 212 218 218 215 214 209 192 195 193 193 197 196 195 195 195 192 189 186 183 180 176 169 180 180 182 186 187 180 175 172 173 172 167 166 170 173 173 172 171 173 174 178 174 167
145 231 197 126 218 249 251 195 139 183 182 247 237 219 217 214 212 209 217 225 223 239 243 254 282 273 262 123 207 201 208 226 261 255 236 236 235 224 218 218 221 221 221 225 226 222 213 200 199 192 195 201 199 199 197 197 192 188 190 189 182 180 174 172 179 183 183 188 185 179 175 173 177 173 176 176 172 175 175 173 172 176 178 175 171 170
151 261 43 103 224 254 252 229 143 145 184 232 257 247 235 218 209 212 220 223 205 226 238 255 254 252 262 146 181 194 188 212 221 231 237 241 237 233 227 224 224 227 226 225 226 218 200 203 199 200 203 203 202 198 195 192 190 188 196 185 183 178 166 174 181 186 190 188 177 175 177 177 172 175 179 174 178 175 174 171 173 179 177 172 171 176
177 148 161 156 222 244 257 130 150 131 93 272 259 244 240 203 198 214 227 221 210 208 215 223 240 248 235 178 175 224 200 215 222 227 237 243 241 232 229 230 229 232 232 229 225 211 208 207 206 205 207 203 199 196 199 191 184 195 191 183 181 163 171 179 184 187 187 182 178 179 177 174 173 177 177 182 177 172 168 173 178 179 176 183 181 166
150 183 212 152 224 238 262 122 128 138 225 226 242 268 242 218 190 211 226 220 219 195 221 227 242 251 235 210 232 227 214 222 222 232 228 236 243 239 237 234 236 233 233 231 221 213 217 214 214 212 207 203 201 200 192 186 193 191 177 172 166 174 178 179 183 185 186 180 181 178 175 175 175 180 183 178 171 168 173 179 186 182 176 164 163 179
189 192 211 167 183 229 142 117 173 218 230 241 6 291 233 218 206 212 232 227 219 219 235 248 251 256 245 229 238 239 230 237 234 242 246 287 244 227 229 228 230 230 230 223 222 222 219 212 209 201 196 202 197 187 177 187 183 168 171 174 177 183 179 182 179 184 184 181 178 172 172 175 177 178 172 169 170 175 180 180 173 173 181 182 182 183
182 189 165 207 170 53 127 184 230 223 250 332 283 125 233 98 166 194 240 240 226 215 217 232 243 246 250 249 252 238 238 251 276 260 242 248 228 237 238 237 233 227 227 219 219 223 216 205 201 200 202 176 159 176 181 183 170 168 177 171 176 175 179 178 180 183 182 180 176 175 174 173 176 172 169 172 171 173 180 183 185 185 178 176 184 188
171 169 173 221 176 211 195 214 235 341 320 285 268 179 140 176 160 171 228 249 228 222 217 228 241 246 249 251 248 249 244 284 282 268 129 218 238 236 234 241 235 229 225 230 217 227 220 213 204 193 161 166 175 173 181 171 167 167 163 170 175 172 175 177 184 187 184 180 177 179 178 176 173 175 175 175 175 182 183 182 184 184 168 178 186 186
170 186 190 203 214 201 210 233 230 245 245 257 245 190 192 182 175 179 187 264 253 210 214 218 235 240 237 244 246 245 91 296 274 270 173 224 229 238 241 239 243 239 228 228 222 225 204 190 175 167 172 174 179 178 166 163 166 164 167 172 171 172 178 183 191 185 179 184 186 179 172 175 177 176 172 170 181 186 189 185 184 185 177 184 183 191
203 199 185 198 199 164 218 220 215 219 239 241 268 199 221 228 156 129 130 252 270 155 205 206 221 232 231 235 245 116 150 236 257 265 247 221 248 222 231 239 232 232 230 217 206 204 194 183 172 168 161 162 171 175 167 165 162 162 170 171 173 176 180 190 190 182 187 189 179 174 176 177 174 173 176 183 188 184 182 185 187 181 175 188 184 193
202 208 198 213 215 204 204 220 225 214 250 258 219 248 242 137 114 102 153 258 241 195 197 194 207 223 231 233 221 149 184 224 248 257 247 193 224 219 206 230 237 235 232 212 215 195 171 147 132 149 166 177 181 164 159 157 161 166 169 173 170 178 189 194 191 188 179 166 171 174 170 172 175 178 179 184 183 183 188 176 158 164 175 185 184 180
194 217 209 211 215 221 221 238 269 274 266 197 183 193 147 137 113 142 212 243 198 209 206 185 205 215 225 224 134 197 213 215 232 243 52 358 348 285 278 269 268 249 223 201 196 148 151 166 168 175 178 171 153 154 156 159 160 170 171 168 173 192 196 183 169 170 172 167 163 166 172 175 179 180 183 182 181 177 170 168 173 164 171 178 175 170
207 195 230 212 225 223 221 229 235 263 246 132 334 153 158 103 180 215 225 178 173 220 237 195 203 222 219 196 186 210 228 227 250 338 296 194 228 264 270 296 8 29 24 167 164 158 156 160 159 153 153 158 158 157 160 161 166 167 166 171 191 194 162 163 167 158 156 162 167 169 171 174 178 179 176 168 155 160 172 173 166 169 171 168 170 180
179 175 192 201 209 242 201 236 210 239 248 129 122 37 272 203 233 212 228 263 175 219 176 210 208 235 181 225 218 224 241 267 278 268 262 252 232 243 223 212 198 195 175 147 173 189 160 158 160 161 156 155 157 157 161 159 162 166 170 187 188 159 158 153 153 156 159 161 164 169 171 173 172 170 166 165 168 168 170 162 162 164 164 167 173 184
168 170 192 216 177 191 200 214 215 220 124 165 146 177 202 215 227 202 154 250 183 182 198 198 227 218 204 208 225 232 239 256 285 261 263 267 251 275 266 240 234 169 171 207 177 174 161 148 144 141 146 152 154 157 158 162 162 166 174 184 155 146 141 148 152 153 156 162 165 165 169 170 171 168 164 165 162 164 159 164 167 166 174 173 176 181
176 211 175 214 170 193 198 218 219 182 170 194 191 199 199 213 220 179 192 199 190 242 195 203 234 237 213 221 244 244 263 234 235 239 221 243 223 224 224 226 203 190 174 169 163 169 160 156 149 138 140 148 152 158 161 164 160 162 172 169 145 149 150 150 150 153 160 163 164 165 163 158 162 164 163 161 161 161 164 162 160 167 173 167 177 180
196 211 180 223 225 234 253 212 172 184 214 228 244 234 219 230 206 126 140 203 234 203 180 198 232 235 211 190 214 258 224 243 236 239 231 242 215 218 181 157 158 148 151 138 140 151 146 130 131 138 139 140 148 150 157 160 159 166 171 147 151 150 149 149 151 158 162 161 158 157 148 152 155 158 160 158 168 170 167 166 170 172 167 175 185 187
253 196 170 217 206 189 240 188 232 228 225 215 221 238 289 218 229 177 209 229 238 176 217 237 240 235 211 184 202 230 244 238 233 234 208 210 205 201 188 187 185 176 167 170 164 140 138 145 140 144 145 144 153 144 145 145 149 143 135 151 148 148 146 149 152 151 150 151 146 143 150 151 157 151 148 153 149 151 154 156 165 164 168 179 184 187
297 166 207 219 231 206 242 202 242 259 277 242 222 246 248 249 234 206 217 223 230 229 222 236 190 241 174 212 223 224 248 235 209 223 203 204 200 190 191 186 175 164 172 151 152 154 150 155 152 150 149 148 148 139 131 128 126 136 137 139 143 140 140 142 149 149 149 145 143 148 153 150 145 147 150 158 157 155 153 163 168 176 182 184 185 184
272 36 211 197 222 252 303 308 274 295 306 253 241 241 243 244 242 232 220 224 228 239 248 247 212 226 193 227 222 227 246 247 218 211 199 196 190 193 192 175 171 165 149 153 167 168 167 159 151 153 144 140 137 133 127 121 125 134 140 141 140 141 135 134 127 125 128 134 133 139 138 138 151 154 152 154 164 158 161 171 182 189 202 211 190 191
104 225 248 13 272 244 234 248 25 295 280 305 272 242 254 247 223 241 238 239 233 233 237 238 251 233 227 227 211 208 224 235 209 188 201 200 195 177 161 155 148 138 141 138 142 158 141 150 146 140 135 132 134 129 125 126 124 124 128 139 142 138 130 130 125 125 132 133 133 132 133 136 145 147 151 156 162 147 81 10 181 201 189 196 197 211
204 200 165 192 201 245 252 258 229 211 240 243 258 247 229 234 206 228 236 236 239 230 221 213 239 248 236 236 207 209 224 220 208 164 170 170 171 147 143 147 147 147 146 144 135 133 136 135 131 125 128 135 134 130 132 130 133 130 137 136 136 131 131 130 125 124 129 136 146 155 149 145 143 145 141 147 150 154 152 109 15 226 206 184 189 206